Zurück zum Katalog

FENGYUN 1C DEB

AktivPO
NORAD 33621·DEBRIS·🇨🇳 China

Gestartet May 10, 1999 von Taiyuan Satellite Launch Center

Loading…

Nächste Überflüge (nächste 24 Stunden)

TLE

AktuellSource: Space-Track

Epoche: Sep 13, 2026, 06:40 UTC

1 33621U 99025DDE 26256.27780557  .00001356  00000-0  43895-3 0  9999
2 33621  98.1228  90.3003 0282190 208.9141 149.6152 14.20298127681402

Verfolge FENGYUN 1C DEB in Echtzeit mit AllMySat

Download on the App Store